Tracking 31027 objects as of 19-Jul-2025
HD Live streaming from Space Station
objects crossing your sky now

STARLINK-1470

Track STARLINK-1470 now!
10-day predictions
STARLINK-1470 is classified as:


NORAD ID: 45772
Int'l Code: 2020-038AU
Perigee: 536.9 km
Apogee: 543.5 km
Inclination: 53.1 °
Period: 95.3 minutes
Semi major axis: 6911 km
RCS: Unknown
Launch date: June 13, 2020
Source: United States (US)
Launch site: AIR FORCE EASTERN TEST RANGE (AFETR)
Your satellite tracking list
Your tracking list is empty




NASA's NSSDC Master Catalog

Two Line Element Set (TLE):
1 45772U 20038AU  25199.61331669  .00021642  00000-0  12934-2 0  9995
2 45772  53.0514 165.6051 0004747 347.4910  12.5962 15.11030131282619
Source of the keplerian elements: AFSPC